Weather History for KMEH - June, 2013

Change the Weather History Date:

Saturday, June 22, 2013

  Actual Average Record
Temperature  
Mean Temperature 50 °F -  
Max Temperature 66 °F 68 °F 86 °F (2004)
Min Temperature 33 °F 37 °F 30 °F (1997)
Degree Days  
Heating Degree Days 16    
Moisture  
Dew Point 40 °F    
Average Humidity 75    
Maximum Humidity 93    
Minimum Humidity 43    
Precipitation  
Precipitation 0.00 in - - ()
Sea Level Pressure  
Sea Level Pressure 30.08 in    
Wind  
Wind Speed 0 mph (NW)    
Max Wind Speed 4 mph    
Max Gust Speed -    
Visibility 10 miles    
Events      
Averages and records for this station are not official NWS values.
T = Trace of Precipitation, MM = Missing Value Source: NWS Daily Summary

Daily Weather History Graph

Daily Weather History Graph

Search for Another Location

Airport or City:

Trip Planner

Search our weather history database for the weather conditions in past years. The results will help you decide how hot, cold, wet, or windy it might be!

Date:

Astronomy

Jun. 22, 2013 Rise Set
Actual Time 5:05 AM PDT 8:46 PM PDT
Civil Twilight 4:27 AM PDT 9:24 PM PDT
Nautical Twilight 3:36 AM PDT 10:15 PM PDT
Astronomical Twilight 2:26 AM PDT 11:24 PM PDT
Moon 8:02 PM PDT (6/22) 4:26 AM PDT (6/22)
Length of Visible Light 16h 57m
Length of Day
15h 41m
Waxing Gibbous, 99% of the Moon is Illuminated
Jun 22
Waxing Gibbous
Jun 23
Full
Jun 29
Last Quarter
Jul 8
New
Jul 15
First Quarter

Hourly Weather History & Observations

Time (PDT) Temp. Dew Point Humidity Pressure Visibility Wind Dir Wind Speed Gust Speed Precip Events Conditions
12:56 AM 43.0 °F 41.0 °F 93% 30.14 in 10.0 mi Calm Calm - N/A   Mostly Cloudy
1:49 AM 39.2 °F 37.4 °F 93% 30.12 in 10.0 mi Calm Calm - N/A   Scattered Clouds
1:56 AM 39.9 °F 37.9 °F 93% 30.14 in 10.0 mi Calm Calm - N/A   Partly Cloudy
2:26 AM 39.2 °F 37.4 °F 93% 30.12 in 10.0 mi Calm Calm - N/A   Mostly Cloudy
2:56 AM 37.9 °F 36.0 °F 93% 30.14 in 2.5 mi Calm Calm - N/A   Mostly Cloudy
3:03 AM 37.4 °F 35.6 °F 93% 30.12 in 10.0 mi Calm Calm - N/A   Overcast
3:19 AM 37.4 °F 35.6 °F 93% 30.12 in 10.0 mi Calm Calm - N/A   Scattered Clouds
3:56 AM 36.0 °F 34.0 °F 93% 30.14 in 10.0 mi Calm Calm - N/A   Mostly Cloudy
4:42 AM 33.8 °F 32.0 °F 93% 30.11 in 10.0 mi Calm Calm - N/A   Scattered Clouds
4:56 AM 34.0 °F 32.0 °F 92% 30.14 in 10.0 mi Calm Calm - N/A   Clear
5:56 AM 35.1 °F 33.1 °F 92% 30.14 in 10.0 mi Calm Calm - N/A   Partly Cloudy
6:09 AM 35.6 °F 33.8 °F 93% 30.11 in 10.0 mi Calm Calm - N/A   Mostly Cloudy
6:41 AM 39.2 °F 35.6 °F 87% 30.12 in 10.0 mi Calm Calm - N/A   Scattered Clouds
6:56 AM 39.0 °F 36.0 °F 89% 30.13 in 10.0 mi Calm Calm - N/A   Scattered Clouds
7:56 AM 50.0 °F 43.0 °F 77% 30.12 in 10.0 mi Calm Calm - N/A   Clear
8:56 AM 52.0 °F 43.0 °F 71% 30.12 in 10.0 mi Calm Calm - N/A   Overcast
9:56 AM 55.0 °F 42.1 °F 62% 30.11 in 10.0 mi Calm Calm - N/A   Mostly Cloudy
10:56 AM 55.9 °F 41.0 °F 57% 30.10 in 10.0 mi Calm Calm - N/A   Overcast
11:56 AM 57.9 °F 39.9 °F 51% 30.10 in 10.0 mi Variable 3.5 mph - N/A   Overcast
12:56 PM 60.1 °F 41.0 °F 49% 30.08 in 10.0 mi Calm Calm - N/A   Overcast
1:56 PM 62.1 °F 42.1 °F 48% 30.07 in 10.0 mi Calm Calm - N/A   Overcast
2:56 PM 63.0 °F 41.0 °F 45% 30.05 in 10.0 mi NNE 3.5 mph - N/A   Mostly Cloudy
3:56 PM 63.0 °F 41.0 °F 45% 30.03 in 10.0 mi West 3.5 mph - N/A   Clear
4:56 PM 66.0 °F 43.0 °F 43% 30.01 in 10.0 mi Variable 3.5 mph - N/A   Clear
5:56 PM 64.9 °F 43.0 °F 45% 30.00 in 10.0 mi Calm Calm - N/A   Clear
6:56 PM 64.0 °F 44.1 °F 48% 29.98 in 10.0 mi Calm Calm - N/A   Clear
7:56 PM 57.9 °F 46.0 °F 65% 29.98 in 10.0 mi Calm Calm - N/A   Clear
8:56 PM 53.1 °F 46.0 °F 77% 29.97 in 10.0 mi Calm Calm - N/A   Clear
9:56 PM 50.0 °F 46.0 °F 86% 29.98 in 10.0 mi Calm Calm - N/A   Clear
10:56 PM 46.9 °F 44.1 °F 90% 29.96 in 10.0 mi Calm Calm - N/A   Clear
11:56 PM 45.0 °F 42.1 °F 90% 29.95 in 10.0 mi Calm Calm - N/A   Clear